W0VI Weather Reports


time (UTC)temp
C
wind
direction
speed
KPH
gust
KPH
rain 1hr
cm
rain 24hr
cm
rain mn
cm
humidity
%
barometer
mb
20260502212915 18 283 16.1 20.9 0.00 0.00 0.00 34 1011.9
20260502212413 18 270 9.7 14.5 0.00 0.00 0.00 33 1012.0
20260502211910 18 215 6.4 9.7 0.00 0.00 0.00 34 1011.8
20260502211405 18 256 11.3 14.5 0.00 0.00 0.00 33 1012.0
20260502210903 18 239 8.0 11.3 0.00 0.00 0.00 33 1012.1
20260502210400 19 229 17.7 27.4 0.00 0.00 0.00 31 1012.2
20260502205857 19 227 8.0 9.7 0.00 0.00 0.00 32 1012.2
20260502205353 19 258 9.7 11.3 0.00 0.00 0.00 33 1012.2
20260502204850 18 262 8.0 9.7 0.00 0.00 0.00 34 1012.3
20260502204348 18 273 6.4 8.0 0.00 0.00 0.00 33 1012.5
20260502203845 18 239 9.7 14.5 0.00 0.00 0.00 34 1012.8
20260502203343 18 209 3.2 4.8 0.00 0.00 0.00 34 1012.8
20260502202838 17 284 8.0 9.7 0.00 0.00 0.00 34 1012.9
20260502202336 18 259 8.0 11.3 0.00 0.00 0.00 34 1013.1
20260502201833 18 311 4.8 8.0 0.00 0.00 0.00 34 1013.2
20260502201329 17 256 4.8 9.7 0.00 0.00 0.00 36 1013.4
20260502200826 17 283 8.0 9.7 0.00 0.00 0.00 34 1013.5
20260502200321 17 201 8.0 11.3 0.00 0.00 0.00 34 1013.6
20260502195820 17 201 11.3 14.5 0.00 0.00 0.00 33 1013.6
20260502195316 17 231 11.3 14.5 0.00 0.00 0.00 34 1013.8
20260502194813 17 213 6.4 8.0 0.00 0.00 0.00 37 1013.8
20260502194310 17 195 4.8 8.0 0.00 0.00 0.00 35 1013.9
20260502193805 17 189 8.0 9.7 0.00 0.00 0.00 36 1014.3
20260502193303 17 323 8.0 9.7 0.00 0.00 0.00 33 1014.0
20260502192758 17 267 14.5 16.1 0.00 0.00 0.00 34 1014.4
20260502192256 17 212 6.4 8.0 0.00 0.00 0.00 35 1014.1
20260502191752 16 295 1.6 1.6 0.00 0.00 0.00 35 1014.4
20260502191250 16 207 9.7 11.3 0.00 0.00 0.00 34 1014.5
20260502190747 16 191 11.3 14.5 0.00 0.00 0.00 35 1014.6
20260502190244 16 214 8.0 9.7 0.00 0.00 0.00 36 1014.7
20260502185739 16 243 6.4 8.0 0.00 0.00 0.00 38 1014.9
20260502185236 16 176 4.8 4.8 0.00 0.00 0.00 35 1014.9
20260502184732 16 256 8.0 9.7 0.00 0.00 0.00 36 1015.1
20260502184228 16 243 8.0 11.3 0.00 0.00 0.00 36 1015.2
20260502183725 16 215 11.3 12.9 0.00 0.00 0.00 36 1015.3
20260502183220 16 167 9.7 11.3 0.00 0.00 0.00 35 1015.4
20260502182716 15 213 9.7 11.3 0.00 0.00 0.00 36 1015.2
20260502182211 15 234 8.0 9.7 0.00 0.00 0.00 36 1015.5
20260502181708 15 232 6.4 8.0 0.00 0.00 0.00 37 1015.5
20260502181203 15 203 8.0 12.9 0.00 0.00 0.00 37 1015.8
20260502180659 15 271 6.4 9.7 0.00 0.00 0.00 39 1015.6
20260502180156 15 215 6.4 11.3 0.00 0.00 0.00 37 1015.8
20260502170120 13 188 8.0 9.7 0.00 0.00 0.00 36 1017.1
20260502164101 13 220 3.2 4.8 0.00 0.00 0.00 38 1017.1
20260502163556 13 323 4.8 8.0 0.00 0.00 0.00 38 1017.1
20260502163054 13 197 4.8 8.0 0.00 0.00 0.00 37 1017.4
20260502162551 13 147 6.4 9.7 0.00 0.00 0.00 36 1017.5
20260502162048 13 241 4.8 8.0 0.00 0.00 0.00 37 1017.4
20260502161545 12 283 9.7 11.3 0.00 0.00 0.00 37 1017.6
20260502161042 12 225 11.3 14.5 0.00 0.00 0.00 38 1017.6
20260502160540 13 203 4.8 8.0 0.00 0.00 0.00 39 1017.6
20260502151953 12 246 4.8 8.0 0.00 0.00 0.00 41 1018.2
20260502151450 12 291 6.4 11.3 0.00 0.00 0.00 42 1018.1
20260502150947 11 217 4.8 4.8 0.00 0.00 0.00 42 1018.0
20260502150444 12 271 8.0 9.7 0.00 0.00 0.00 41 1018.1
20260502130329 6 288 3.2 3.2 0.00 0.00 0.00 60 1018.8
20260502123815 5 280 3.2 8.0 0.00 0.00 0.00 63 1018.8
20260502123312 5 262 4.8 4.8 0.00 0.00 0.00 64 1019.0
20260502122809 5 296 3.2 3.2 0.00 0.00 0.00 65 1019.0
20260502122306 5 278 4.8 4.8 0.00 0.00 0.00 65 1018.7
20260502121803 4 277 4.8 4.8 0.00 0.00 0.00 66 1018.7
20260502121301 4 285 1.6 1.6 0.00 0.00 0.00 67 1018.9
20260502120757 3 267 3.2 4.8 0.00 0.00 0.00 68 1018.7
20260502120254 3 287 0.0 1.6 0.00 0.00 0.00 69 1018.8
20260502115752 3 282 1.6 1.6 0.00 0.00 0.00 70 1018.7
20260502115248 3 285 1.6 1.6 0.00 0.00 0.00 70 1018.7
20260502114744 3 301 1.6 1.6 0.00 0.00 0.00 71 1018.8
20260502114241 2 272 3.2 3.2 0.00 0.00 0.00 71 1018.9
20260502113738 2 296 3.2 3.2 0.00 0.00 0.00 72 1018.7
20260502113236 2 289 3.2 3.2 0.00 0.00 0.00 72 1019.0
20260502112734 2 280 1.6 3.2 0.00 0.00 0.00 71 1018.6
20260502112231 2 274 3.2 3.2 0.00 0.00 0.00 71 1018.8
20260502111728 2 300 3.2 3.2 0.00 0.00 0.00 71 1018.8
20260502111226 2 296 1.6 1.6 0.00 0.00 0.00 70 1018.6
20260502110723 2 278 3.2 3.2 0.00 0.00 0.00 70 1018.7
20260502110221 2 279 4.8 4.8 0.00 0.00 0.00 69 1018.8
20260502105719 3 273 3.2 3.2 0.00 0.00 0.00 69 1018.6
20260502105215 3 293 1.6 3.2 0.00 0.00 0.00 68 1018.7
20260502104713 3 291 4.8 4.8 0.00 0.00 0.00 68 1018.7
20260502104210 3 295 1.6 3.2 0.00 0.00 0.00 68 1018.6
20260502103707 3 286 1.6 1.6 0.00 0.00 0.00 68 1018.5
20260502103205 3 284 3.2 3.2 0.00 0.00 0.00 67 1018.6
20260502102702 3 281 1.6 3.2 0.00 0.00 0.00 67 1018.5
20260502102158 3 286 1.6 1.6 0.00 0.00 0.00 67 1018.6
20260502101656 3 305 0.0 1.6 0.00 0.00 0.00 66 1018.6
20260502101154 3 299 0.0 1.6 0.00 0.00 0.00 66 1018.7
20260502100652 3 294 3.2 3.2 0.00 0.00 0.00 66 1018.4
20260502100150 3 279 1.6 3.2 0.00 0.00 0.00 65 1018.5
20260502091125 3 278 1.6 1.6 0.00 0.00 0.00 66 1018.5
20260502090621 3 274 1.6 1.6 0.00 0.00 0.00 66 1018.4
20260502090119 3 308 0.0 0.0 0.00 0.00 0.00 65 1018.3
20260502071516 5 299 0.0 0.0 0.00 0.00 0.00 59 1018.5
20260502071014 5 305 1.6 1.6 0.00 0.00 0.00 58 1018.8
20260502070512 5 252 3.2 3.2 0.00 0.00 0.00 58 1018.6
20260502070010 5 297 1.6 1.6 0.00 0.00 0.00 57 1018.7
20260502065508 6 293 1.6 3.2 0.00 0.00 0.00 56 1018.7
20260502065006 6 314 1.6 1.6 0.00 0.00 0.00 55 1018.8
20260502064504 6 274 3.2 4.8 0.00 0.00 0.00 55 1018.8
20260502064000 6 265 8.0 9.7 0.00 0.00 0.00 54 1018.8
20260502063459 6 275 4.8 4.8 0.00 0.00 0.00 54 1018.7
20260502062956 6 304 3.2 4.8 0.00 0.00 0.00 54 1018.8
20260502062452 6 280 1.6 3.2 0.00 0.00 0.00 55 1019.0
20260502061951 6 243 8.0 8.0 0.00 0.00 0.00 55 1018.9
20260502061449 6 291 1.6 3.2 0.00 0.00 0.00 55 1018.8
20260502060944 6 287 4.8 4.8 0.00 0.00 0.00 55 1018.8
20260502060440 6 274 3.2 4.8 0.00 0.00 0.00 56 1018.8
20260502055937 6 264 3.2 4.8 0.00 0.00 0.00 56 1018.9
20260502055435 6 231 3.2 3.2 0.00 0.00 0.00 55 1018.7
20260502054929 6 270 6.4 8.0 0.00 0.00 0.00 54 1018.9
20260502054427 6 303 1.6 1.6 0.00 0.00 0.00 54 1019.0
20260502053924 6 284 1.6 1.6 0.00 0.00 0.00 54 1018.8
20260502053421 6 313 3.2 4.8 0.00 0.00 0.00 54 1018.8
20260502052918 6 261 4.8 8.0 0.00 0.00 0.00 54 1018.9
20260502052416 6 269 4.8 4.8 0.00 0.00 0.00 53 1019.1
20260502051914 6 256 6.4 8.0 0.00 0.00 0.00 53 1018.9
20260502051412 6 297 3.2 3.2 0.00 0.00 0.00 53 1019.1
20260502050909 6 308 1.6 3.2 0.00 0.00 0.00 53 1019.0
20260502050405 6 323 1.6 1.6 0.00 0.00 0.00 53 1019.0
20260502045903 6 300 1.6 3.2 0.00 0.00 0.00 52 1019.1
20260502045359 6 310 1.6 1.6 0.00 0.00 0.00 51 1018.9
20260502044856 6 310 1.6 1.6 0.00 0.00 0.00 50 1019.0
20260502044352 6 278 4.8 4.8 0.00 0.00 0.00 50 1018.8
20260502043849 6 291 4.8 4.8 0.00 0.00 0.00 49 1018.8
20260502043347 6 280 4.8 4.8 0.00 0.00 0.00 50 1018.8
20260502042846 6 280 1.6 1.6 0.00 0.00 0.00 50 1018.7
20260502042343 6 290 3.2 3.2 0.00 0.00 0.00 49 1018.9
20260502041841 7 304 1.6 3.2 0.00 0.00 0.00 49 1018.8
20260502041338 6 282 4.8 4.8 0.00 0.00 0.00 50 1019.0
20260502040835 6 298 1.6 1.6 0.00 0.00 0.00 49 1018.8
20260502040332 6 289 3.2 3.2 0.00 0.00 0.00 49 1019.1
20260502035828 7 275 3.2 3.2 0.00 0.00 0.00 49 1018.9
20260502035325 7 293 3.2 3.2 0.00 0.00 0.00 49 1018.7
20260502034822 6 301 0.0 1.6 0.00 0.00 0.00 49 1018.9
20260502034321 7 311 1.6 1.6 0.00 0.00 0.00 48 1018.9
20260502033819 7 287 1.6 1.6 0.00 0.00 0.00 46 1018.7
20260502033316 7 289 3.2 3.2 0.00 0.00 0.00 46 1019.1
20260502032812 7 304 0.0 1.6 0.00 0.00 0.00 46 1019.1
20260502032308 7 299 1.6 1.6 0.00 0.00 0.00 46 1018.9
20260502031807 7 306 1.6 1.6 0.00 0.00 0.00 46 1019.0
20260502031304 7 301 1.6 1.6 0.00 0.00 0.00 46 1018.9
20260502030803 7 303 1.6 1.6 0.00 0.00 0.00 46 1018.9
20260502030300 7 311 0.0 1.6 0.00 0.00 0.00 46 1018.9
20260502025758 7 300 1.6 1.6 0.00 0.00 0.00 45 1019.0
20260502025255 7 304 1.6 3.2 0.00 0.00 0.00 46 1018.7
20260502024753 7 316 1.6 1.6 0.00 0.00 0.00 45 1018.9
20260502024250 7 313 1.6 1.6 0.00 0.00 0.00 44 1018.8
20260502023749 7 305 1.6 3.2 0.00 0.00 0.00 44 1019.0
20260502023246 7 299 1.6 1.6 0.00 0.00 0.00 44 1018.9
20260502022744 7 301 1.6 1.6 0.00 0.00 0.00 44 1018.8
20260502022239 8 310 1.6 1.6 0.00 0.00 0.00 44 1019.1
20260502021736 8 294 1.6 3.2 0.00 0.00 0.00 43 1018.8
20260502021234 8 294 3.2 3.2 0.00 0.00 0.00 43 1018.8
20260502020731 8 311 0.0 1.6 0.00 0.00 0.00 44 1018.5
20260502020228 8 310 1.6 1.6 0.00 0.00 0.00 44 1018.7
20260502015726 8 307 1.6 1.6 0.00 0.00 0.00 42 1018.6
20260502015222 8 298 1.6 1.6 0.00 0.00 0.00 42 1018.5
20260502014720 8 310 0.0 0.0 0.00 0.00 0.00 42 1018.5
20260502014216 8 292 1.6 1.6 0.00 0.00 0.00 42 1018.3
20260502013713 8 310 1.6 1.6 0.00 0.00 0.00 41 1018.3
20260502013208 8 292 1.6 1.6 0.00 0.00 0.00 40 1018.2
20260502012705 9 305 1.6 1.6 0.00 0.00 0.00 40 1018.3
20260502012203 9 310 1.6 1.6 0.00 0.00 0.00 40 1018.3
20260502011700 10 316 1.6 1.6 0.00 0.00 0.00 39 1018.4
20260502011155 10 327 1.6 1.6 0.00 0.00 0.00 37 1018.1
20260502010654 10 293 1.6 1.6 0.00 0.00 0.00 36 1018.3
20260502010149 10 284 3.2 3.2 0.00 0.00 0.00 35 1018.3
20260502005647 10 314 1.6 1.6 0.00 0.00 0.00 35 1018.3
20260502005145 10 309 1.6 3.2 0.00 0.00 0.00 35 1018.2
20260502004640 11 340 1.6 1.6 0.00 0.00 0.00 34 1018.3
20260502004137 11 283 8.0 9.7 0.00 0.00 0.00 33 1018.2
20260502003635 11 297 3.2 3.2 0.00 0.00 0.00 34 1018.4
20260502003132 11 338 3.2 3.2 0.00 0.00 0.00 35 1018.3
20260502002628 11 246 3.2 3.2 0.00 0.00 0.00 35 1018.2
20260502002126 11 324 1.6 3.2 0.00 0.00 0.00 33 1018.2
20260502001623 11 359 1.6 3.2 0.00 0.00 0.00 33 1018.4
20260502001120 11 308 1.6 3.2 0.00 0.00 0.00 33 1018.3
20260502000619 11 264 8.0 9.7 0.00 0.00 0.00 33 1018.4
20260502000116 11 301 1.6 1.6 0.00 0.00 0.00 33 1018.1
20260501235611 11 303 4.8 4.8 0.00 0.00 0.00 33 1018.2
20260501235107 12 311 8.0 9.7 0.00 0.00 0.00 31 1018.2
20260501234603 11 316 1.6 1.6 0.00 0.00 0.00 33 1018.4
20260501234101 11 325 4.8 8.0 0.00 0.00 0.00 32 1018.2
20260501233559 11 321 11.3 12.9 0.00 0.00 0.00 31 1018.3
20260501233055 11 279 4.8 8.0 0.00 0.00 0.00 32 1018.2
20260501232551 12 289 1.6 1.6 0.00 0.00 0.00 33 1018.4
20260501232049 11 344 1.6 3.2 0.00 0.00 0.00 32 1018.3
20260501231547 10 18 4.8 4.8 0.00 0.00 0.00 34 1018.3
20260501231045 11 348 6.4 8.0 0.00 0.00 0.00 34 1018.4
20260501230544 11 279 3.2 4.8 0.00 0.00 0.00 34 1018.3
20260501230041 11 344 4.8 8.0 0.00 0.00 0.00 33 1018.2
20260501225538 11 300 4.8 8.0 0.00 0.00 0.00 34 1018.3
20260501225034 11 310 3.2 3.2 0.00 0.00 0.00 34 1018.5
20260501224532 12 288 11.3 16.1 0.00 0.00 0.00 33 1018.4
20260501224029 12 354 1.6 1.6 0.00 0.00 0.00 34 1018.4
20260501223525 12 276 8.0 9.7 0.00 0.00 0.00 33 1018.2
20260501223021 11 284 11.3 12.9 0.00 0.00 0.00 32 1018.5
20260501222518 12 344 11.3 14.5 0.00 0.00 0.00 32 1018.4
20260501222015 12 327 1.6 3.2 0.00 0.00 0.00 32 1018.4
20260501221511 11 330 4.8 4.8 0.00 0.00 0.00 33 1018.3
20260501221009 11 356 1.6 1.6 0.00 0.00 0.00 36 1018.6
20260501220507 11 319 3.2 4.8 0.00 0.00 0.00 34 1018.4
20260501220003 11 294 4.8 4.8 0.00 0.00 0.00 32 1018.5
20260501215459 11 33 3.2 3.2 0.00 0.00 0.00 34 1018.3
20260501214955 10 326 4.8 8.0 0.00 0.00 0.00 35 1018.6
20260501214450 11 4 3.2 4.8 0.00 0.00 0.00 36 1018.2
20260501213946 10 316 4.8 8.0 0.00 0.00 0.00 34 1018.3
20260501213444 11 298 4.8 8.0 0.00 0.00 0.00 34 1018.4